Regional Weather Roundup
Issued by NWS

Home | Current Version | Previous Version | Text Only | Print | Product List | Glossary On
Versions: 1 2 3 4 5 6 7 8 9 10 11 12 13 14 15 16 17 18 19 20 21 22 23 24 25 26 27 28 29 30 31 32 33 34 35 36 37 38 39 40 41 42 43 44 45 46 47 48 49 50
855
ASUS43 KLSX 181607
RWRMO

WEATHER SUMMARY FOR MISSOURI
NATIONAL WEATHER SERVICE SPRINGFIELD MO
1000 AM CST SAT JAN 18 2020

NOTE: "FAIR" INDICATES FEW OR NO CLOUDS BELOW 12,000 FEET WITH NO
       SIGNIFICANT WEATHER AND/OR OBSTRUCTIONS TO VISIBILITY.
       CURRENT SKY AND/OR WEATHER CONDITIONS ARE NOT AVAILABLE FOR
       CHILLICOTHE AND FARMINGTON.

MOZ001>031-035>038-043-044-053-054-181700-
...NORTHERN AND WESTERN MISSOURI...

CITY           SKY/WX    TMP DP  RH WIND       PRES   REMARKS
KANSAS CTY INT MOSUNNY   24  14  65 NW16G26   30.23R WCI  11
KANSAS C DTWN  SUNNY     24  14  65 NW22G33   30.24R WCI   9
LEE`S SUMMIT   PTSUNNY   26  17  68 W20G28    30.22R WCI  12
ST JOSEPH      MOSUNNY   20  11  68 NW26G37   30.25R WCI   2
CHILLICOTHE      N/A     21  15  78 W13G26    30.17R WCI   9
KIRKSVILLE     CLOUDY    22  20  92 W22G32    30.05R WCI   6

$$
MOZ066>068-077>081-088>096-101>105-181700-
...SOUTHWEST MISSOURI...

CITY           SKY/WX    TMP DP  RH WIND       PRES   REMARKS
SPRINGFIELD    CLOUDY    39  34  82 W20G28    30.16R WCI  29
JOPLIN         PTSUNNY   36  29  75 NW15      30.28R WCI  27
BRANSON        CLOUDY    43  37  81 W14G23    30.18R

$$
MOZ032>034-039>042-045>050-055>058-069>072-181700-
...CENTRAL MISSOURI...

CITY           SKY/WX    TMP DP  RH WIND       PRES   REMARKS
COLUMBIA       CLOUDY    34  29  82 W21G30    30.08R WCI  22
JEFFERSON CITY CLOUDY    40  33  76 NW26G38   30.10R WCI  29
ROLLA          CLOUDY    40  35  83 W14       30.07R
SEDALIA        PTSUNNY   31  32 100 NW21G36   30.17R WCI  18
WHITEMAN AFB   CLOUDY    29  27  90 NW17G29   30.15R WCI  17
WARRENSBURG      N/A    N/A N/A N/A MISG        N/A
OSAGE BEACH    CLOUDY    41  35  79 W14G23    30.13R

$$
MOZ051-052-059>065-181700-
...EAST CENTRAL MISSOURI...

CITY           SKY/WX    TMP DP  RH WIND       PRES   REMARKS
ST LOUIS INTL  PTSUNNY   42  35  76 W16G30    30.01R
SPIRIT OF STL  CLOUDY    42  36  79 W18G29    30.02R
ST CHARLES     CLOUDY    41  34  76 W21G36    30.01R

$$
MOZ072>076-082>087-097>100-106>115-181700-
...SOUTH CENTRAL AND SOUTHEAST MISSOURI...

CITY           SKY/WX    TMP DP  RH WIND       PRES   REMARKS
CAPE GIRARDEAU PTSUNNY   59  52  77 SW20G28   30.00R
FARMINGTON     CLOUDY    51  43  74 NW21G29   30.02R
POPLAR BLUFF   FAIR      58  47  66 W16G25    30.04R
WEST PLAINS    PTSUNNY   49  41  74 W17G29    30.09R

$$




USA.gov is the U.S. government's official web portal to all federal, state and local government web resources and services.